Regional Weather Roundup
Issued by NWS Little Rock, AR

Home | Current Version | Previous Version | Text Only | Print | Product List | Glossary On
Versions: 1 2 3 4 5 6 7 8 9 10 11 12 13 14 15 16 17 18 19 20 21 22 23 24 25 26 27 28 29 30 31 32 33 34 35 36 37 38 39 40 41 42 43 44 45 46 47 48 49
000
ASUS44 KLZK 020905
RWRLZK

WEATHER ROUNDUP FOR ARKANSAS
NATIONAL WEATHER SERVICE LITTLE ROCK AR
400 AM CDT TUE JUN 02 2015

NOTE: "FAIR" INDICATES FEW OR NO CLOUDS BELOW 12,000 FEET WITH NO
SIGNIFICANT WEATHER AND/OR OBSTRUCTIONS TO VISIBILITY.

ARZ001-003-010-029-021000-
NORTHWEST ARKANSAS

CITY           SKY/WX    TMP DP  RH WIND       PRES   REMARKS
FAYETTEVILLE   PTCLDY    57  57 100 CALM      30.08S
FORT SMITH     CLEAR     65  62  90 E6        30.05S
HARRISON       CLOUDY    60  58  92 SE6       30.11S
BENTONVILLE    CLEAR     61  55  82 E5        30.08F
ROGERS         CLEAR     60  59  96 E8        30.09S
SILOAM SPGS    CLEAR     59  54  82 CALM      30.08F
HIGHFILL       PTCLDY    60  58  92 E3        30.07F
$$

ARZ004-005-016-021000-
NORTH CENTRAL ARKANSAS

CITY           SKY/WX    TMP DP  RH WIND       PRES   REMARKS
BATESVILLE     CLOUDY    61  57  88 CALM      30.11R
FLIPPIN        MOCLDY    61  57  88 CALM      30.10R
MTN HOME       CLOUDY    59  57  93 E6        30.10S
$$

ARZ040-041-021000-
WEST CENTRAL ARKANSAS

CITY           SKY/WX    TMP DP  RH WIND       PRES   REMARKS
MENA           PTCLDY    64  63  94 CALM      30.09R
MOUNT IDA      PTCLDY    64  62  93 CALM      30.06S FOG
$$

ARZ009-017-025-026-028-021000-
NORTHEAST ARKANSAS

CITY           SKY/WX    TMP DP  RH WIND       PRES   REMARKS
CORNING          N/A     61  61 100 NW6       30.11R FOG
JONESBORO      PTCLDY    59  59 100 CALM      30.10R
NEWPORT        CLOUDY    61  61 100 N5        30.11S
WALNUT RIDGE   CLEAR     63  57  82 NW6       30.11R
BLYTHEVILLE    CLOUDY    63  62  97 N6        30.08S
$$

ARZ022-023-033-042-044-021000-
CENTRAL ARKANSAS

CITY           SKY/WX    TMP DP  RH WIND       PRES   REMARKS
LITTLE ROCK    CLOUDY    67  61  81 E3        30.08F
N LITTLE ROCK    N/A     65  63  94 NE7       30.08F
JACKSONVILLE   CLOUDY    65  63  94 NE3       30.08S
SEARCY         CLOUDY    62  60  93 N7        30.11S
HOT SPRINGS    MOCLDY    65  62  90 E3        30.08S
RUSSELLVILLE   CLOUDY    67  62  84 E5        30.08S
CLINTON        CLOUDY    64  61  88 CALM      30.12R
$$

ARZ036-021000-
EAST ARKANSAS

CITY           SKY/WX    TMP DP  RH WIND       PRES   REMARKS
WEST MEMPHIS   PTCLDY    61  61 100 N3        30.06F
$$

ARZ050-053-066-070-073-021000-
SOUTHWEST ARKANSAS

CITY           SKY/WX    TMP DP  RH WIND       PRES   REMARKS
ARKADELPHIA    FAIR      67  67 100 CALM      30.08S
CAMDEN         CLOUDY    64  61  88 CALM      30.07R
TEXARKANA      PTCLDY    65  64  97 CALM      30.06R
EL DORADO      CLEAR     63  61  93 NE5       30.07R FOG
DE QUEEN       CLEAR     63  63 100 CALM      30.05R FOG
$$

ARZ056-057-069-021000-
SOUTHEAST ARKANSAS

CITY           SKY/WX    TMP DP  RH WIND       PRES   REMARKS
PINE BLUFF     CLOUDY    66  63  90 CALM      30.08S
STUTTGART      PTCLDY    64  59  82 MISG      30.08S
MONTICELLO     CLEAR     62  61  96 CALM      30.07S

$$





USA.gov is the U.S. government's official web portal to all federal, state and local government web resources and services.